Location: Strawberry
(45.6646°N, 111.9596°W)
Time: 22:23:39
(UTC+00:00)

N. Korean satellite - Pass Details

Date: 26 August 2022
Orbit: 428 x 468 km, 97.3° (Epoch: 24 September)

Event Time Altitude Azimuth Distance (km) Brightness Sun altitude
Rises 12:06:16 0° 23° (NNE) 2,526 11.0 -6.7°
Reaches altitude 10° 12:08:35 10° 37° (NE) 1,637 10.3 -6.3°
Maximum altitude 12:11:35 26° 95° (E) 953 9.0 -5.8°
Drops below altitude 10° 12:14:32 10° 154° (SSE) 1,606 9.3 -5.4°
Sets 12:16:47 0° 167° (SSE) 2,466 10.1 -5.0°
